Time,TemperatureF,DewpointF,PressureIn,WindDirection,WindDirectionDegrees,WindSpeedMPH,WindSpeedGustMPH,Humidity,HourlyPrecipIn,Conditions,Clouds,dailyrainin,SolarRadiationWatts/m^2,SoftwareType,DateUTC
2013-02-18 00:00:00,23.0,10.5,30.10,SSW,193,0.7,0.0,58,0.00,,,0.00,0,TxWx,2013-02-18 05:00:00,
2013-02-18 00:05:00,23.0,10.1,30.09,SSW,207,0.0,0.0,57,0.00,,,0.00,0,TxWx,2013-02-18 05:05:00,
2013-02-18 00:10:00,23.0,10.2,30.09,South,181,0.0,0.0,57,0.00,,,0.00,0,TxWx,2013-02-18 05:10:00,
2013-02-18 00:15:00,23.1,10.1,30.09,South,189,0.0,0.0,56,0.00,,,0.00,0,TxWx,2013-02-18 05:15:00,
2013-02-18 00:16:00,23.0,10.1,30.09,South,189,0.0,0.0,56,0.00,,,0.00,0,TxWx,2013-02-18 05:16:00,
2013-02-18 00:20:00,23.2,10.3,30.09,South,171,0.0,0.0,57,0.00,,,0.00,0,TxWx,2013-02-18 05:20:00,
2013-02-18 00:21:00,23.3,10.6,30.09,SSW,193,0.0,0.0,57,0.00,,,0.00,0,TxWx,2013-02-18 05:21:00,
2013-02-18 00:25:00,23.1,11.6,30.09,SSW,200,0.0,0.0,60,0.00,,,0.00,0,TxWx,2013-02-18 05:25:00,
2013-02-18 00:26:00,23.1,11.6,30.09,SSW,211,0.3,0.0,60,0.00,,,0.00,0,TxWx,2013-02-18 05:26:00,
2013-02-18 00:30:00,23.1,12.1,30.09,SSW,208,0.0,0.0,62,0.00,,,0.00,0,TxWx,2013-02-18 05:30:00,
2013-02-18 00:31:00,23.2,12.3,30.09,SSW,210,0.0,0.0,62,0.00,,,0.00,0,TxWx,2013-02-18 05:31:00,
2013-02-18 00:35:00,23.3,11.9,30.09,SSW,209,0.0,0.0,61,0.00,,,0.00,0,TxWx,2013-02-18 05:35:00,
2013-02-18 00:36:00,23.3,11.9,30.09,SSW,209,0.0,0.0,61,0.00,,,0.00,0,TxWx,2013-02-18 05:36:00,
2013-02-18 00:40:00,23.3,11.6,30.10,SSW,209,0.0,0.0,60,0.00,,,0.00,0,TxWx,2013-02-18 05:40:00,
2013-02-18 00:41:00,23.3,11.6,30.10,SSW,209,0.0,0.0,60,0.00,,,0.00,0,TxWx,2013-02-18 05:41:00,
2013-02-18 00:46:00,23.3,12.2,30.10,South,181,0.0,0.0,61,0.00,,,0.00,0,TxWx,2013-02-18 05:46:00,
2013-02-18 00:51:00,23.5,12.0,30.10,SW,215,0.0,0.0,60,0.00,,,0.00,0,TxWx,2013-02-18 05:51:00,
2013-02-18 00:52:00,23.4,12.1,30.10,SW,215,0.0,0.0,61,0.00,,,0.00,0,TxWx,2013-02-18 05:52:00,
2013-02-18 00:56:00,23.4,11.9,30.10,SW,215,0.0,0.0,60,0.00,,,0.00,0,TxWx,2013-02-18 05:56:00,
2013-02-18 00:57:00,23.4,11.8,30.10,SW,215,0.0,0.0,60,0.00,,,0.00,0,TxWx,2013-02-18 05:57:00,
2013-02-18 01:01:00,23.3,11.9,30.10,SSW,209,0.0,0.0,60,0.00,,,0.00,0,TxWx,2013-02-18 06:01:00,
2013-02-18 01:02:00,23.3,12.1,30.10,SSW,210,0.0,0.0,61,0.00,,,0.00,0,TxWx,2013-02-18 06:02:00,
2013-02-18 01:07:00,23.2,13.0,30.10,SW,214,0.0,0.0,64,0.00,,,0.00,0,TxWx,2013-02-18 06:07:00,
2013-02-18 01:12:00,22.9,13.2,30.10,SSW,211,0.0,0.0,65,0.00,,,0.00,0,TxWx,2013-02-18 06:12:00,
2013-02-18 01:17:00,23.0,13.1,30.10,WSW,247,0.0,0.0,65,0.00,,,0.00,0,TxWx,2013-02-18 06:17:00,
2013-02-18 01:22:00,22.9,14.3,30.10,SSW,200,0.0,0.0,69,0.00,,,0.00,0,TxWx,2013-02-18 06:22:00,
2013-02-18 01:27:00,23.0,14.2,30.10,SSW,201,0.0,0.0,68,0.00,,,0.00,0,TxWx,2013-02-18 06:27:00,
2013-02-18 01:28:00,23.0,14.5,30.10,SSW,199,0.0,0.0,69,0.00,,,0.00,0,TxWx,2013-02-18 06:28:00,
2013-02-18 01:32:00,23.1,13.5,30.10,SSW,199,0.0,0.0,66,0.00,,,0.00,0,TxWx,2013-02-18 06:32:00,
2013-02-18 01:33:00,23.2,13.0,30.11,SSW,199,0.0,0.0,64,0.00,,,0.00,0,TxWx,2013-02-18 06:33:00,
2013-02-18 01:37:00,23.2,13.6,30.11,SSW,201,0.0,0.0,66,0.00,,,0.00,0,TxWx,2013-02-18 06:37:00,
2013-02-18 01:38:00,23.1,13.5,30.11,SW,221,0.0,0.0,66,0.00,,,0.00,0,TxWx,2013-02-18 06:38:00,
2013-02-18 01:42:00,23.1,12.9,30.11,SSW,199,0.0,0.0,64,0.00,,,0.00,0,TxWx,2013-02-18 06:42:00,
2013-02-18 01:43:00,23.0,12.8,30.11,SSW,199,0.0,0.0,64,0.00,,,0.00,0,TxWx,2013-02-18 06:43:00,
2013-02-18 01:47:00,23.2,11.9,30.11,SSW,199,0.0,0.0,61,0.00,,,0.00,0,TxWx,2013-02-18 06:47:00,
2013-02-18 01:48:00,23.2,11.8,30.11,SSW,199,0.0,0.0,61,0.00,,,0.00,0,TxWx,2013-02-18 06:48:00,
2013-02-18 01:52:00,23.2,11.7,30.10,SSW,199,0.0,0.0,60,0.00,,,0.00,0,TxWx,2013-02-18 06:52:00,
2013-02-18 01:53:00,23.3,11.5,30.10,SSE,150,0.0,0.0,59,0.00,,,0.00,0,TxWx,2013-02-18 06:53:00,
2013-02-18 01:57:00,23.3,11.7,30.10,SSE,155,0.0,0.0,60,0.00,,,0.00,0,TxWx,2013-02-18 06:57:00,
2013-02-18 01:58:00,23.3,11.7,30.10,SSE,155,0.0,0.0,60,0.00,,,0.00,0,TxWx,2013-02-18 06:58:00,
2013-02-18 02:02:00,23.3,11.6,30.11,SSE,154,0.0,0.0,60,0.00,,,0.00,0,TxWx,2013-02-18 07:02:00,
2013-02-18 02:03:00,23.3,11.6,30.11,SSE,155,0.0,0.0,60,0.00,,,0.00,0,TxWx,2013-02-18 07:03:00,
2013-02-18 02:08:00,23.1,11.8,30.11,SSE,155,0.0,0.0,61,0.00,,,0.00,0,TxWx,2013-02-18 07:08:00,
2013-02-18 02:13:00,23.0,11.9,30.11,SSE,155,0.0,0.0,61,0.00,,,0.00,0,TxWx,2013-02-18 07:13:00,
2013-02-18 02:18:00,23.1,11.4,30.11,South,169,0.0,0.0,60,0.00,,,0.00,0,TxWx,2013-02-18 07:18:00,
2013-02-18 02:19:00,23.1,11.4,30.11,South,181,0.0,0.0,60,0.00,,,0.00,0,TxWx,2013-02-18 07:19:00,
2013-02-18 02:23:00,23.1,11.4,30.11,South,181,0.0,0.0,60,0.00,,,0.00,0,TxWx,2013-02-18 07:23:00,
2013-02-18 02:24:00,23.1,11.5,30.11,South,181,0.0,0.0,60,0.00,,,0.00,0,TxWx,2013-02-18 07:24:00,
2013-02-18 02:28:00,23.1,11.3,30.11,South,181,0.0,0.0,60,0.00,,,0.00,0,TxWx,2013-02-18 07:28:00,
2013-02-18 02:29:00,23.0,11.3,30.11,South,180,0.0,0.0,60,0.00,,,0.00,0,TxWx,2013-02-18 07:29:00,
2013-02-18 02:33:00,23.0,11.5,30.11,South,181,0.0,0.0,60,0.00,,,0.00,0,TxWx,2013-02-18 07:33:00,
2013-02-18 02:34:00,23.0,11.8,30.11,South,181,0.0,0.0,61,0.00,,,0.00,0,TxWx,2013-02-18 07:34:00,
2013-02-18 02:38:00,23.1,12.4,30.11,South,181,0.0,0.0,63,0.00,,,0.00,0,TxWx,2013-02-18 07:38:00,
2013-02-18 02:39:00,23.1,12.4,30.11,South,181,0.0,0.0,63,0.00,,,0.00,0,TxWx,2013-02-18 07:39:00,
2013-02-18 02:43:00,23.4,12.4,30.11,South,181,0.0,0.0,62,0.00,,,0.00,0,TxWx,2013-02-18 07:43:00,
2013-02-18 02:44:00,23.4,12.4,30.11,South,191,0.0,0.0,62,0.00,,,0.00,0,TxWx,2013-02-18 07:44:00,
2013-02-18 02:49:00,23.4,12.7,30.11,SSW,207,0.0,0.0,62,0.00,,,0.00,0,TxWx,2013-02-18 07:49:00,
2013-02-18 02:54:00,23.5,12.3,30.11,South,180,0.0,0.0,61,0.00,,,0.00,0,TxWx,2013-02-18 07:54:00,
2013-02-18 02:59:00,23.6,12.4,30.11,South,174,0.0,0.0,61,0.00,,,0.00,0,TxWx,2013-02-18 07:59:00,
2013-02-18 03:00:00,23.7,12.3,30.11,South,174,0.0,0.0,61,0.00,,,0.00,0,TxWx,2013-02-18 08:00:00,
2013-02-18 03:04:00,23.8,12.4,30.11,South,174,0.0,0.0,61,0.00,,,0.00,0,TxWx,2013-02-18 08:04:00,
2013-02-18 03:05:00,23.9,12.3,30.11,South,173,0.0,0.0,60,0.00,,,0.00,0,TxWx,2013-02-18 08:05:00,
2013-02-18 03:09:00,23.8,12.2,30.11,South,174,0.0,0.0,60,0.00,,,0.00,0,TxWx,2013-02-18 08:09:00,
2013-02-18 03:10:00,23.8,12.1,30.11,South,174,0.0,0.0,60,0.00,,,0.00,0,TxWx,2013-02-18 08:10:00,
2013-02-18 03:14:00,23.7,11.9,30.11,South,174,0.0,0.0,60,0.00,,,0.00,0,TxWx,2013-02-18 08:14:00,
2013-02-18 03:15:00,23.7,12.1,30.11,South,174,0.0,0.0,60,0.00,,,0.00,0,TxWx,2013-02-18 08:15:00,
2013-02-18 03:19:00,23.7,12.4,30.11,South,174,0.0,0.0,61,0.00,,,0.00,0,TxWx,2013-02-18 08:19:00,
2013-02-18 03:20:00,23.6,12.2,30.11,South,173,0.0,0.0,61,0.00,,,0.00,0,TxWx,2013-02-18 08:20:00,
2013-02-18 03:24:00,23.3,12.5,30.12,SSW,192,0.0,0.0,62,0.00,,,0.00,0,TxWx,2013-02-18 08:24:00,
2013-02-18 03:25:00,23.3,12.5,30.12,SSW,192,0.0,0.0,62,0.00,,,0.00,0,TxWx,2013-02-18 08:25:00,
2013-02-18 03:30:00,23.4,12.2,30.12,SSW,213,0.0,0.0,61,0.00,,,0.00,0,TxWx,2013-02-18 08:30:00,
2013-02-18 03:35:00,23.4,12.7,30.12,South,186,0.0,0.0,63,0.00,,,0.00,0,TxWx,2013-02-18 08:35:00,
2013-02-18 03:40:00,23.3,13.0,30.12,South,190,0.0,0.0,64,0.00,,,0.00,0,TxWx,2013-02-18 08:40:00,
2013-02-18 03:41:00,23.3,13.1,30.12,South,169,0.0,0.0,64,0.00,,,0.00,0,TxWx,2013-02-18 08:41:00,
2013-02-18 03:45:00,23.4,12.6,30.12,South,176,0.0,0.0,62,0.00,,,0.00,0,TxWx,2013-02-18 08:45:00,
2013-02-18 03:46:00,23.5,12.5,30.12,South,176,0.0,0.0,62,0.00,,,0.00,0,TxWx,2013-02-18 08:46:00,
2013-02-18 03:50:00,23.6,12.4,30.12,South,176,0.0,0.0,61,0.00,,,0.00,0,TxWx,2013-02-18 08:50:00,
2013-02-18 03:51:00,23.6,12.6,30.12,South,176,0.0,0.0,62,0.00,,,0.00,0,TxWx,2013-02-18 08:51:00,
2013-02-18 03:55:00,23.6,12.9,30.12,South,176,0.0,0.0,63,0.00,,,0.00,0,TxWx,2013-02-18 08:55:00,
2013-02-18 03:56:00,23.5,13.3,30.12,South,176,0.0,0.0,64,0.00,,,0.00,0,TxWx,2013-02-18 08:56:00,
2013-02-18 04:00:00,23.1,13.7,30.12,South,175,0.0,0.0,66,0.00,,,0.00,0,TxWx,2013-02-18 09:00:00,
2013-02-18 04:01:00,22.6,13.3,30.12,South,176,0.0,0.0,66,0.00,,,0.00,0,TxWx,2013-02-18 09:01:00,
2013-02-18 04:05:00,21.9,13.5,30.12,South,175,0.0,0.0,69,0.00,,,0.00,0,TxWx,2013-02-18 09:05:00,
2013-02-18 04:06:00,21.9,13.5,30.12,South,175,0.0,0.0,69,0.00,,,0.00,0,TxWx,2013-02-18 09:06:00,
2013-02-18 04:10:00,21.2,13.1,30.12,South,176,0.0,0.0,70,0.00,,,0.00,0,TxWx,2013-02-18 09:10:00,
2013-02-18 04:11:00,21.1,13.1,30.12,South,175,0.0,0.0,71,0.00,,,0.00,0,TxWx,2013-02-18 09:11:00,
2013-02-18 04:12:00,21.1,13.1,30.12,South,173,0.0,0.0,71,0.00,,,0.00,0,TxWx,2013-02-18 09:12:00,
2013-02-18 04:16:00,21.0,13.1,30.12,North,352,0.0,0.0,71,0.00,,,0.00,0,TxWx,2013-02-18 09:16:00,
2013-02-18 04:17:00,21.0,13.1,30.12,North,352,0.0,0.0,70,0.00,,,0.00,0,TxWx,2013-02-18 09:17:00,
2013-02-18 04:21:00,21.0,13.1,30.12,North,352,0.0,0.0,70,0.00,,,0.00,0,TxWx,2013-02-18 09:21:00,
2013-02-18 04:22:00,21.0,13.1,30.12,North,352,0.0,0.0,70,0.00,,,0.00,0,TxWx,2013-02-18 09:22:00,
2013-02-18 04:26:00,20.9,12.9,30.13,North,352,0.0,0.0,70,0.00,,,0.00,0,TxWx,2013-02-18 09:26:00,
2013-02-18 04:27:00,20.9,12.8,30.13,North,352,0.0,0.0,70,0.00,,,0.00,0,TxWx,2013-02-18 09:27:00,
2013-02-18 04:31:00,21.2,13.4,30.13,North,352,0.0,0.0,71,0.00,,,0.00,0,TxWx,2013-02-18 09:31:00,
2013-02-18 04:32:00,21.2,13.4,30.13,North,352,0.0,0.0,71,0.00,,,0.00,0,TxWx,2013-02-18 09:32:00,
2013-02-18 04:33:00,21.3,13.6,30.13,North,352,0.0,0.0,71,0.00,,,0.00,0,TxWx,2013-02-18 09:33:00,
2013-02-18 04:36:00,21.5,14.1,30.13,North,352,0.0,0.0,72,0.00,,,0.00,0,TxWx,2013-02-18 09:36:00,
2013-02-18 04:37:00,21.5,14.0,30.13,North,353,0.0,0.0,72,0.00,,,0.00,0,TxWx,2013-02-18 09:37:00,
2013-02-18 04:38:00,21.5,14.1,30.13,North,352,0.0,0.0,72,0.00,,,0.00,0,TxWx,2013-02-18 09:38:00,
2013-02-18 04:41:00,21.6,14.3,30.13,North,352,0.0,0.0,73,0.00,,,0.00,0,TxWx,2013-02-18 09:41:00,
2013-02-18 04:42:00,21.6,14.3,30.13,North,352,0.0,0.0,73,0.00,,,0.00,0,TxWx,2013-02-18 09:42:00,
2013-02-18 04:43:00,21.6,14.1,30.13,North,352,0.0,0.0,72,0.00,,,0.00,0,TxWx,2013-02-18 09:43:00,
2013-02-18 04:46:00,21.8,14.1,30.13,East,82,0.3,0.0,71,0.00,,,0.00,0,TxWx,2013-02-18 09:46:00,
2013-02-18 04:47:00,21.9,14.4,30.13,East,81,0.0,0.0,72,0.00,,,0.00,0,TxWx,2013-02-18 09:47:00,
2013-02-18 04:49:00,22.0,14.6,30.13,East,81,0.0,0.0,72,0.00,,,0.00,0,TxWx,2013-02-18 09:49:00,
2013-02-18 04:51:00,22.1,14.6,30.13,East,81,0.0,0.0,72,0.00,,,0.00,0,TxWx,2013-02-18 09:51:00,
2013-02-18 04:52:00,22.2,14.6,30.14,East,82,0.0,0.0,72,0.00,,,0.00,0,TxWx,2013-02-18 09:52:00,
2013-02-18 04:53:00,22.2,14.6,30.14,East,81,0.0,0.0,72,0.00,,,0.00,0,TxWx,2013-02-18 09:53:00,
2013-02-18 04:54:00,22.2,14.6,30.14,East,81,0.0,0.0,72,0.00,,,0.00,0,TxWx,2013-02-18 09:54:00,
2013-02-18 04:56:00,22.2,14.7,30.14,East,82,0.0,0.0,72,0.00,,,0.00,0,TxWx,2013-02-18 09:56:00,
2013-02-18 04:58:00,22.2,14.6,30.14,East,81,0.0,0.0,72,0.00,,,0.00,0,TxWx,2013-02-18 09:58:00,
2013-02-18 04:59:00,22.2,14.7,30.14,East,81,0.0,0.0,72,0.00,,,0.00,0,TxWx,2013-02-18 09:59:00,
2013-02-18 05:01:00,22.2,14.8,30.14,East,81,0.0,0.0,72,0.00,,,0.00,0,TxWx,2013-02-18 10:01:00,
2013-02-18 05:03:00,22.1,15.0,30.14,East,81,0.0,0.0,73,0.00,,,0.00,0,TxWx,2013-02-18 10:03:00,
2013-02-18 05:04:00,22.1,15.0,30.14,East,81,0.0,0.0,73,0.00,,,0.00,0,TxWx,2013-02-18 10:04:00,
2013-02-18 05:07:00,21.8,13.8,30.14,ENE,70,0.0,0.0,70,0.00,,,0.00,0,TxWx,2013-02-18 10:07:00,
2013-02-18 05:08:00,21.7,13.7,30.14,ENE,70,0.0,0.0,70,0.00,,,0.00,0,TxWx,2013-02-18 10:08:00,
2013-02-18 05:09:00,21.7,14.1,30.14,ENE,72,0.0,0.0,72,0.00,,,0.00,0,TxWx,2013-02-18 10:09:00,
2013-02-18 05:12:00,21.6,14.4,30.15,ENE,75,0.0,0.0,73,0.00,,,0.00,0,TxWx,2013-02-18 10:12:00,
2013-02-18 05:13:00,21.5,14.4,30.15,ENE,75,0.0,0.0,73,0.00,,,0.00,0,TxWx,2013-02-18 10:13:00,
2013-02-18 05:14:00,21.5,14.3,30.15,ENE,76,0.0,0.0,73,0.00,,,0.00,0,TxWx,2013-02-18 10:14:00,
2013-02-18 05:17:00,21.4,14.1,30.15,ENE,78,0.0,0.0,73,0.00,,,0.00,0,TxWx,2013-02-18 10:17:00,
2013-02-18 05:18:00,21.4,14.3,30.15,ENE,78,0.0,0.0,73,0.00,,,0.00,0,TxWx,2013-02-18 10:18:00,
2013-02-18 05:19:00,21.4,14.5,30.15,ENE,78,0.0,0.0,74,0.00,,,0.00,0,TxWx,2013-02-18 10:19:00,
2013-02-18 05:22:00,21.4,15.1,30.15,NE,50,0.0,0.0,76,0.00,,,0.00,0,TxWx,2013-02-18 10:22:00,
2013-02-18 05:23:00,21.4,15.1,30.15,NE,50,0.0,0.0,76,0.00,,,0.00,0,TxWx,2013-02-18 10:23:00,
2013-02-18 05:24:00,21.4,15.1,30.15,NE,50,0.0,0.0,76,0.00,,,0.00,0,TxWx,2013-02-18 10:24:00,
2013-02-18 05:27:00,21.4,15.2,30.15,NE,50,0.0,0.0,76,0.00,,,0.00,0,TxWx,2013-02-18 10:27:00,
2013-02-18 05:28:00,21.4,15.2,30.15,NE,51,0.0,0.0,76,0.00,,,0.00,0,TxWx,2013-02-18 10:28:00,
2013-02-18 05:29:00,21.4,15.2,30.15,NE,51,0.0,0.0,76,0.00,,,0.00,0,TxWx,2013-02-18 10:29:00,
2013-02-18 05:33:00,21.4,15.2,30.15,NE,50,0.0,0.0,76,0.00,,,0.00,0,TxWx,2013-02-18 10:33:00,
2013-02-18 05:34:00,21.4,15.3,30.15,ENE,62,0.0,0.0,76,0.00,,,0.00,0,TxWx,2013-02-18 10:34:00,
2013-02-18 05:38:00,21.5,15.2,30.15,ENE,66,0.0,0.0,76,0.00,,,0.00,0,TxWx,2013-02-18 10:38:00,
2013-02-18 05:39:00,21.5,15.4,30.15,ENE,66,0.0,0.0,76,0.00,,,0.00,0,TxWx,2013-02-18 10:39:00,
2013-02-18 05:40:00,21.5,15.3,30.15,ENE,66,0.0,0.0,76,0.00,,,0.00,0,TxWx,2013-02-18 10:40:00,
2013-02-18 05:43:00,21.4,15.5,30.15,ENE,66,0.0,0.0,77,0.00,,,0.00,0,TxWx,2013-02-18 10:43:00,
2013-02-18 05:44:00,21.4,15.5,30.16,ENE,66,0.0,0.0,77,0.00,,,0.00,0,TxWx,2013-02-18 10:44:00,
2013-02-18 05:45:00,21.4,15.4,30.16,ENE,66,0.0,0.0,77,0.00,,,0.00,0,TxWx,2013-02-18 10:45:00,
2013-02-18 05:48:00,21.4,15.6,30.16,NE,34,0.0,0.0,77,0.00,,,0.00,0,TxWx,2013-02-18 10:48:00,
2013-02-18 05:49:00,21.4,15.5,30.16,NE,34,0.0,0.0,77,0.00,,,0.00,0,TxWx,2013-02-18 10:49:00,
2013-02-18 05:50:00,21.4,15.5,30.16,NE,34,0.0,0.0,77,0.00,,,0.00,0,TxWx,2013-02-18 10:50:00,
2013-02-18 05:54:00,21.5,15.7,30.15,NE,34,0.0,0.0,77,0.00,,,0.00,0,TxWx,2013-02-18 10:54:00,
2013-02-18 05:55:00,21.5,15.7,30.15,NE,34,0.0,0.0,78,0.00,,,0.00,0,TxWx,2013-02-18 10:55:00,
2013-02-18 05:59:00,22.2,15.9,30.15,NE,39,0.0,0.0,76,0.00,,,0.00,0,TxWx,2013-02-18 10:59:00,
2013-02-18 06:00:00,22.2,15.9,30.15,NE,39,0.0,0.0,76,0.00,,,0.00,0,TxWx,2013-02-18 11:00:00,
2013-02-18 06:04:00,22.2,14.6,30.16,ENE,68,0.0,0.0,72,0.00,,,0.00,0,TxWx,2013-02-18 11:04:00,
2013-02-18 06:05:00,22.2,14.6,30.16,ENE,68,0.0,0.0,72,0.00,,,0.00,0,TxWx,2013-02-18 11:05:00,
2013-02-18 06:09:00,21.9,13.8,30.16,ENE,64,0.0,0.0,70,0.00,,,0.00,0,TxWx,2013-02-18 11:09:00,
2013-02-18 06:10:00,21.9,13.8,30.16,ENE,64,0.0,0.0,70,0.00,,,0.00,0,TxWx,2013-02-18 11:10:00,
2013-02-18 06:15:00,21.6,14.6,30.16,NE,39,0.0,0.0,73,0.00,,,0.00,0,TxWx,2013-02-18 11:15:00,
2013-02-18 06:20:00,21.5,14.5,30.16,NE,39,0.0,0.0,73,0.00,,,0.00,0,TxWx,2013-02-18 11:20:00,
2013-02-18 06:25:00,20.2,13.6,30.16,WNW,301,0.0,0.0,75,0.00,,,0.00,0,TxWx,2013-02-18 11:25:00,
2013-02-18 06:30:00,19.7,13.7,30.16,North,358,0.0,0.0,77,0.00,,,0.00,0,TxWx,2013-02-18 11:30:00,
2013-02-18 06:35:00,19.4,13.9,30.16,North,358,0.0,0.0,78,0.00,,,0.00,0,TxWx,2013-02-18 11:35:00,
2013-02-18 06:36:00,19.4,13.9,30.16,North,357,0.0,0.0,78,0.00,,,0.00,0,TxWx,2013-02-18 11:36:00,
2013-02-18 06:40:00,19.2,14.0,30.16,North,358,0.0,0.0,79,0.00,,,0.00,0,TxWx,2013-02-18 11:40:00,
2013-02-18 06:41:00,19.2,14.0,30.16,North,358,0.0,0.0,79,0.00,,,0.00,0,TxWx,2013-02-18 11:41:00,
2013-02-18 06:46:00,19.2,14.3,30.16,North,358,0.0,0.0,81,0.00,,,0.00,0,TxWx,2013-02-18 11:46:00,
2013-02-18 06:51:00,19.3,15.1,30.16,North,358,0.0,0.0,83,0.00,,,0.00,0,TxWx,2013-02-18 11:51:00,
2013-02-18 06:56:00,19.7,15.4,30.16,North,358,0.0,0.0,83,0.00,,,0.00,0,TxWx,2013-02-18 11:56:00,
2013-02-18 07:01:00,19.9,15.8,30.16,North,358,0.0,0.0,83,0.00,,,0.00,0,TxWx,2013-02-18 12:01:00,
2013-02-18 07:06:00,20.3,16.1,30.17,North,358,0.0,0.0,83,0.00,,,0.00,0,TxWx,2013-02-18 12:06:00,
2013-02-18 07:11:00,20.6,15.8,30.17,North,358,0.0,0.0,81,0.00,,,0.00,0,TxWx,2013-02-18 12:11:00,
2013-02-18 07:16:00,20.9,16.3,30.17,North,358,0.0,0.0,81,0.00,,,0.00,0,TxWx,2013-02-18 12:16:00,
2013-02-18 07:17:00,20.9,16.3,30.17,North,358,0.0,0.0,81,0.00,,,0.00,0,TxWx,2013-02-18 12:17:00,
2013-02-18 10:38:00,31.3,19.3,30.18,South,171,0.7,0.0,60,0.00,,,0.00,0,TxWx,2013-02-18 15:38:00,
2013-02-18 10:43:00,31.9,19.7,30.18,South,170,0.7,0.0,60,0.00,,,0.00,0,TxWx,2013-02-18 15:43:00,
2013-02-18 10:48:00,32.4,20.6,30.18,SSE,164,1.1,1.1,61,0.00,,,0.00,0,TxWx,2013-02-18 15:48:00,
2013-02-18 10:53:00,33.5,20.9,30.18,SSE,149,1.1,1.1,59,0.00,,,0.00,0,TxWx,2013-02-18 15:53:00,
2013-02-18 10:58:00,34.1,21.0,30.18,SSE,158,0.3,0.0,58,0.00,,,0.00,0,TxWx,2013-02-18 15:58:00,
2013-02-18 10:59:00,34.1,21.0,30.18,SSE,158,0.3,0.0,58,0.00,,,0.00,0,TxWx,2013-02-18 15:59:00,
2013-02-18 11:04:00,34.7,20.9,30.18,SSE,157,0.7,0.0,56,0.00,,,0.00,0,TxWx,2013-02-18 16:04:00,
2013-02-18 11:09:00,34.7,20.8,30.18,SSE,158,1.1,1.1,56,0.00,,,0.00,0,TxWx,2013-02-18 16:09:00,
2013-02-18 11:14:00,35.0,21.4,30.17,ESE,106,0.3,0.0,57,0.00,,,0.00,0,TxWx,2013-02-18 16:14:00,
2013-02-18 11:19:00,35.5,21.9,30.17,SSE,162,1.1,1.1,57,0.00,,,0.00,0,TxWx,2013-02-18 16:19:00,
2013-02-18 11:24:00,36.3,22.4,30.17,SSW,193,0.7,0.0,56,0.00,,,0.00,0,TxWx,2013-02-18 16:24:00,
2013-02-18 11:25:00,36.5,22.3,30.17,South,170,0.7,1.0,55,0.00,,,0.00,0,TxWx,2013-02-18 16:25:00,
2013-02-18 11:29:00,37.1,22.5,30.17,SSE,151,1.1,1.1,55,0.00,,,0.00,0,TxWx,2013-02-18 16:29:00,
2013-02-18 11:30:00,37.1,22.5,30.17,South,176,0.7,0.0,55,0.00,,,0.00,0,TxWx,2013-02-18 16:30:00,
2013-02-18 11:34:00,37.8,22.9,30.17,SSE,166,0.7,0.0,54,0.00,,,0.00,0,TxWx,2013-02-18 16:34:00,
2013-02-18 11:35:00,37.8,22.9,30.17,SSE,166,0.7,0.0,54,0.00,,,0.00,0,TxWx,2013-02-18 16:35:00,
2013-02-18 11:39:00,38.6,23.1,30.17,SSE,168,0.7,0.0,53,0.00,,,0.00,0,TxWx,2013-02-18 16:39:00,
2013-02-18 11:40:00,38.6,23.1,30.17,SSE,168,0.7,0.0,53,0.00,,,0.00,0,TxWx,2013-02-18 16:40:00,
2013-02-18 11:44:00,39.2,22.9,30.17,South,179,0.0,0.0,51,0.00,,,0.00,0,TxWx,2013-02-18 16:44:00,
2013-02-18 11:45:00,39.2,22.9,30.17,South,178,0.7,0.0,51,0.00,,,0.00,0,TxWx,2013-02-18 16:45:00,
2013-02-18 11:49:00,39.7,22.9,30.17,West,262,0.7,0.0,50,0.00,,,0.00,0,TxWx,2013-02-18 16:49:00,
2013-02-18 11:50:00,39.6,22.9,30.17,SW,221,0.3,0.0,50,0.00,,,0.00,0,TxWx,2013-02-18 16:50:00,
2013-02-18 11:54:00,40.0,23.6,30.17,South,189,0.3,0.0,51,0.00,,,0.00,0,TxWx,2013-02-18 16:54:00,
2013-02-18 11:55:00,40.2,23.4,30.17,South,188,0.0,0.0,50,0.00,,,0.00,0,TxWx,2013-02-18 16:55:00,
2013-02-18 11:59:00,40.7,23.8,30.17,West,259,0.7,1.0,50,0.00,,,0.00,0,TxWx,2013-02-18 16:59:00,
2013-02-18 12:00:00,40.7,23.5,30.16,WNW,295,0.7,0.0,49,0.00,,,0.00,0,TxWx,2013-02-18 17:00:00,
2013-02-18 12:04:00,40.9,24.1,30.16,WSW,256,0.7,0.0,51,0.00,,,0.00,0,TxWx,2013-02-18 17:04:00,
2013-02-18 12:05:00,40.9,24.1,30.16,West,269,0.7,0.0,51,0.00,,,0.00,0,TxWx,2013-02-18 17:05:00,
2013-02-18 12:06:00,40.9,24.2,30.16,WSW,255,0.3,0.0,51,0.00,,,0.00,0,TxWx,2013-02-18 17:06:00,
2013-02-18 12:10:00,41.2,24.3,30.16,WNW,287,1.1,1.1,50,0.00,,,0.00,0,TxWx,2013-02-18 17:10:00,
2013-02-18 12:11:00,41.3,23.8,30.16,WSW,247,1.1,1.1,49,0.00,,,0.00,0,TxWx,2013-02-18 17:11:00,
2013-02-18 12:15:00,41.4,23.4,30.16,SW,233,0.7,1.0,48,0.00,,,0.00,0,TxWx,2013-02-18 17:15:00,
2013-02-18 12:16:00,41.4,23.5,30.16,West,267,1.1,1.1,48,0.00,,,0.00,0,TxWx,2013-02-18 17:16:00,
2013-02-18 12:20:00,41.8,24.1,30.16,West,273,1.5,1.5,49,0.00,,,0.00,0,TxWx,2013-02-18 17:20:00,
2013-02-18 12:21:00,41.8,23.7,30.16,West,269,1.1,1.1,48,0.00,,,0.00,0,TxWx,2013-02-18 17:21:00,
2013-02-18 12:25:00,42.2,23.8,30.16,WSW,256,0.7,0.0,47,0.00,,,0.00,0,TxWx,2013-02-18 17:25:00,
2013-02-18 12:26:00,42.4,24.2,30.16,WNW,287,1.5,1.5,48,0.00,,,0.00,0,TxWx,2013-02-18 17:26:00,
2013-02-18 12:30:00,42.4,24.3,30.16,West,266,1.5,1.5,48,0.00,,,0.00,0,TxWx,2013-02-18 17:30:00,
2013-02-18 12:31:00,42.5,24.0,30.16,WSW,250,1.5,1.5,47,0.00,,,0.00,0,TxWx,2013-02-18 17:31:00,
2013-02-18 12:35:00,42.9,24.2,30.16,SW,226,1.5,1.5,47,0.00,,,0.00,0,TxWx,2013-02-18 17:35:00,
2013-02-18 12:37:00,43.2,24.3,30.16,West,266,1.1,1.1,46,0.00,,,0.00,0,TxWx,2013-02-18 17:37:00,
2013-02-18 12:40:00,43.4,24.9,30.15,WSW,254,1.1,1.1,47,0.00,,,0.00,0,TxWx,2013-02-18 17:40:00,
2013-02-18 12:43:00,43.3,24.1,30.15,West,281,0.3,0.0,46,0.00,,,0.00,0,TxWx,2013-02-18 17:43:00,
2013-02-18 12:45:00,43.7,24.4,30.15,WSW,239,1.1,1.1,46,0.00,,,0.00,0,TxWx,2013-02-18 17:45:00,
2013-02-18 12:48:00,44.0,24.6,30.15,West,280,1.5,1.5,46,0.00,,,0.00,0,TxWx,2013-02-18 17:48:00,
2013-02-18 12:50:00,44.0,24.6,30.15,WNW,292,1.9,2.0,46,0.00,,,0.00,0,TxWx,2013-02-18 17:50:00,
2013-02-18 12:53:00,44.3,25.7,30.15,WNW,295,1.1,1.1,47,0.00,,,0.00,0,TxWx,2013-02-18 17:53:00,
2013-02-18 12:55:00,44.3,25.4,30.15,West,281,2.6,2.6,47,0.00,,,0.00,0,TxWx,2013-02-18 17:55:00,
2013-02-18 12:58:00,44.5,25.5,30.15,West,269,1.5,2.0,46,0.00,,,0.00,0,TxWx,2013-02-18 17:58:00,
2013-02-18 13:01:00,44.8,26.6,30.15,West,259,0.7,1.0,48,0.00,,,0.00,0,TxWx,2013-02-18 18:01:00,
2013-02-18 13:03:00,45.0,26.7,30.15,North,354,0.7,0.0,48,0.00,,,0.00,0,TxWx,2013-02-18 18:03:00,
2013-02-18 13:06:00,45.0,25.9,30.15,West,265,0.7,0.0,46,0.00,,,0.00,0,TxWx,2013-02-18 18:06:00,
2013-02-18 13:08:00,45.0,25.1,30.14,NW,307,0.7,1.0,45,0.00,,,0.00,0,TxWx,2013-02-18 18:08:00,
2013-02-18 13:11:00,44.8,24.9,30.14,West,274,1.5,1.5,45,0.00,,,0.00,0,TxWx,2013-02-18 18:11:00,
2013-02-18 13:13:00,44.9,25.3,30.14,WNW,296,3.0,3.0,45,0.00,,,0.00,0,TxWx,2013-02-18 18:13:00,
2013-02-18 13:16:00,44.9,25.3,30.14,West,269,1.5,1.5,45,0.00,,,0.00,0,TxWx,2013-02-18 18:16:00,
2013-02-18 13:18:00,44.7,24.8,30.14,West,262,2.3,2.3,45,0.00,,,0.00,0,TxWx,2013-02-18 18:18:00,
2013-02-18 13:21:00,44.5,24.9,30.14,WSW,250,2.3,2.3,45,0.00,,,0.00,0,TxWx,2013-02-18 18:21:00,
2013-02-18 13:22:00,44.5,24.9,30.14,WSW,251,1.1,3.0,45,0.00,,,0.00,0,TxWx,2013-02-18 18:22:00,
2013-02-18 13:23:00,44.5,24.8,30.14,WNW,303,2.3,3.0,45,0.00,,,0.00,0,TxWx,2013-02-18 18:23:00,
2013-02-18 13:26:00,44.7,25.1,30.14,SW,214,2.6,2.6,45,0.00,,,0.00,0,TxWx,2013-02-18 18:26:00,
2013-02-18 13:27:00,44.7,25.1,30.14,West,271,1.1,1.1,45,0.00,,,0.00,0,TxWx,2013-02-18 18:27:00,
2013-02-18 13:28:00,44.8,25.4,30.14,West,272,1.1,1.1,46,0.00,,,0.00,0,TxWx,2013-02-18 18:28:00,
2013-02-18 13:31:00,45.2,26.4,30.13,WSW,255,1.9,1.9,47,0.00,,,0.00,0,TxWx,2013-02-18 18:31:00,
2013-02-18 13:32:00,45.2,26.4,30.13,WSW,243,1.5,1.5,47,0.00,,,0.00,0,TxWx,2013-02-18 18:32:00,
2013-02-18 13:34:00,45.3,25.7,30.13,West,266,1.5,1.5,45,0.00,,,0.00,0,TxWx,2013-02-18 18:34:00,
2013-02-18 13:36:00,45.6,26.4,30.13,WNW,303,1.9,2.0,46,0.00,,,0.00,0,TxWx,2013-02-18 18:36:00,
2013-02-18 13:37:00,45.8,27.0,30.13,WNW,300,1.9,1.9,47,0.00,,,0.00,0,TxWx,2013-02-18 18:37:00,
2013-02-18 13:39:00,45.5,25.4,30.13,WSW,255,3.0,3.0,44,0.00,,,0.00,0,TxWx,2013-02-18 18:39:00,
2013-02-18 13:41:00,45.5,25.6,30.13,SSW,205,1.1,1.1,45,0.00,,,0.00,0,TxWx,2013-02-18 18:41:00,
2013-02-18 13:42:00,45.6,25.5,30.13,WNW,289,0.7,0.0,45,0.00,,,0.00,0,TxWx,2013-02-18 18:42:00,
2013-02-18 13:44:00,45.8,26.4,30.13,WNW,290,1.9,1.9,46,0.00,,,0.00,0,TxWx,2013-02-18 18:44:00,
2013-02-18 13:46:00,46.2,26.8,30.13,South,182,1.1,1.1,46,0.00,,,0.00,0,TxWx,2013-02-18 18:46:00,
2013-02-18 13:47:00,46.2,26.2,30.13,West,269,1.1,1.1,45,0.00,,,0.00,0,TxWx,2013-02-18 18:47:00,
2013-02-18 13:49:00,45.9,25.3,30.12,West,281,0.3,0.0,44,0.00,,,0.00,0,TxWx,2013-02-18 18:49:00,
2013-02-18 13:52:00,46.0,25.8,30.12,West,266,1.9,1.9,44,0.00,,,0.00,0,TxWx,2013-02-18 18:52:00,
2013-02-18 13:54:00,45.9,25.0,30.12,West,261,1.9,2.0,43,0.00,,,0.00,0,TxWx,2013-02-18 18:54:00,
2013-02-18 13:57:00,46.2,25.1,30.12,SW,219,1.1,1.1,43,0.00,,,0.00,0,TxWx,2013-02-18 18:57:00,
2013-02-18 14:00:00,46.3,24.9,30.12,WSW,240,0.7,0.0,42,0.00,,,0.00,0,TxWx,2013-02-18 19:00:00,
2013-02-18 14:02:00,46.8,26.9,30.12,West,264,2.6,3.0,45,0.00,,,0.00,0,TxWx,2013-02-18 19:02:00,
2013-02-18 14:05:00,47.0,26.1,30.12,WSW,257,1.5,2.0,43,0.00,,,0.00,0,TxWx,2013-02-18 19:05:00,
2013-02-18 14:07:00,47.1,25.8,30.12,NW,305,1.1,1.1,43,0.00,,,0.00,0,TxWx,2013-02-18 19:07:00,
2013-02-18 14:10:00,47.2,25.8,30.12,WNW,303,1.1,1.1,42,0.00,,,0.00,0,TxWx,2013-02-18 19:10:00,
2013-02-18 14:12:00,47.2,25.2,30.12,West,266,0.7,0.0,41,0.00,,,0.00,0,TxWx,2013-02-18 19:12:00,
2013-02-18 14:15:00,47.7,26.0,30.12,West,274,1.1,1.1,42,0.00,,,0.00,0,TxWx,2013-02-18 19:15:00,
2013-02-18 14:17:00,47.8,26.6,30.12,WSW,240,1.1,1.1,43,0.00,,,0.00,0,TxWx,2013-02-18 19:17:00,
2013-02-18 14:18:00,47.8,26.6,30.12,WSW,258,1.1,1.1,43,0.00,,,0.00,0,TxWx,2013-02-18 19:18:00,
2013-02-18 14:20:00,47.8,25.9,30.12,West,268,1.1,1.1,42,0.00,,,0.00,0,TxWx,2013-02-18 19:20:00,
2013-02-18 14:22:00,48.1,25.9,30.12,WSW,240,0.7,0.0,41,0.00,,,0.00,0,TxWx,2013-02-18 19:22:00,
2013-02-18 14:23:00,48.1,25.9,30.11,WSW,239,0.7,0.0,41,0.00,,,0.00,0,TxWx,2013-02-18 19:23:00,
2013-02-18 14:25:00,48.4,26.2,30.11,West,275,1.9,1.9,41,0.00,,,0.00,0,TxWx,2013-02-18 19:25:00,
2013-02-18 14:27:00,48.4,26.3,30.11,WNW,286,1.9,1.9,41,0.00,,,0.00,0,TxWx,2013-02-18 19:27:00,
2013-02-18 14:28:00,48.4,26.3,30.11,West,278,2.3,2.3,41,0.00,,,0.00,0,TxWx,2013-02-18 19:28:00,
2013-02-18 14:30:00,48.5,26.2,30.11,West,269,2.3,2.3,41,0.00,,,0.00,0,TxWx,2013-02-18 19:30:00,
2013-02-18 14:32:00,48.1,25.7,30.11,WSW,257,1.5,1.5,41,0.00,,,0.00,0,TxWx,2013-02-18 19:32:00,
2013-02-18 14:33:00,48.2,25.7,30.11,WNW,293,1.9,1.9,41,0.00,,,0.00,0,TxWx,2013-02-18 19:33:00,
2013-02-18 14:35:00,48.5,25.4,30.11,North,350,1.1,1.1,40,0.00,,,0.00,0,TxWx,2013-02-18 19:35:00,
2013-02-18 14:38:00,48.6,25.4,30.11,WNW,297,1.5,1.5,40,0.00,,,0.00,0,TxWx,2013-02-18 19:38:00,
2013-02-18 14:41:00,48.4,25.5,30.11,West,260,0.7,0.0,40,0.00,,,0.00,0,TxWx,2013-02-18 19:41:00,
2013-02-18 14:43:00,48.5,25.6,30.11,NNW,338,1.1,1.1,40,0.00,,,0.00,0,TxWx,2013-02-18 19:43:00,
2013-02-18 14:46:00,48.2,25.1,30.10,West,264,1.5,1.5,40,0.00,,,0.00,0,TxWx,2013-02-18 19:46:00,
2013-02-18 14:48:00,48.2,24.7,30.10,WNW,301,1.9,1.9,39,0.00,,,0.00,0,TxWx,2013-02-18 19:48:00,
2013-02-18 14:51:00,48.4,24.9,30.10,WNW,291,1.5,1.5,39,0.00,,,0.00,0,TxWx,2013-02-18 19:51:00,
2013-02-18 14:53:00,48.7,25.1,30.10,WNW,282,0.0,0.0,39,0.00,,,0.00,0,TxWx,2013-02-18 19:53:00,
2013-02-18 14:54:00,49.0,25.7,30.10,WNW,303,0.7,0.0,40,0.00,,,0.00,0,TxWx,2013-02-18 19:54:00,
2013-02-18 14:56:00,49.0,26.2,30.10,West,281,1.1,1.1,40,0.00,,,0.00,0,TxWx,2013-02-18 19:56:00,
2013-02-18 14:58:00,48.9,25.0,30.10,WNW,290,0.3,0.0,39,0.00,,,0.00,0,TxWx,2013-02-18 19:58:00,
2013-02-18 14:59:00,49.1,25.5,30.10,WSW,237,0.0,0.0,39,0.00,,,0.00,0,TxWx,2013-02-18 19:59:00,
2013-02-18 15:01:00,49.0,25.6,30.10,West,271,1.5,1.5,39,0.00,,,0.00,0,TxWx,2013-02-18 20:01:00,
2013-02-18 15:03:00,48.9,25.1,30.10,WNW,301,0.7,0.0,39,0.00,,,0.00,0,TxWx,2013-02-18 20:03:00,
2013-02-18 15:04:00,49.0,25.4,30.10,NNW,341,1.1,1.1,39,0.00,,,0.00,0,TxWx,2013-02-18 20:04:00,
2013-02-18 15:06:00,49.0,25.5,30.10,NW,324,0.7,0.0,39,0.00,,,0.00,0,TxWx,2013-02-18 20:06:00,
2013-02-18 15:08:00,49.2,25.5,30.10,WNW,301,0.3,0.0,39,0.00,,,0.00,0,TxWx,2013-02-18 20:08:00,
2013-02-18 15:09:00,49.3,25.9,30.10,WNW,300,0.3,0.0,39,0.00,,,0.00,0,TxWx,2013-02-18 20:09:00,
2013-02-18 15:11:00,49.4,26.3,30.09,WSW,246,0.7,0.0,40,0.00,,,0.00,0,TxWx,2013-02-18 20:11:00,
2013-02-18 15:13:00,49.5,25.8,30.09,NW,307,0.3,0.0,39,0.00,,,0.00,0,TxWx,2013-02-18 20:13:00,
2013-02-18 15:14:00,49.6,26.3,30.09,NW,326,2.6,3.0,40,0.00,,,0.00,0,TxWx,2013-02-18 20:14:00,
2013-02-18 15:17:00,49.4,25.5,30.09,WNW,301,0.0,0.0,39,0.00,,,0.00,0,TxWx,2013-02-18 20:17:00,
2013-02-18 15:18:00,49.4,26.6,30.09,South,175,0.7,0.0,40,0.00,,,0.00,0,TxWx,2013-02-18 20:18:00,
2013-02-18 15:19:00,49.5,27.0,30.09,West,268,1.1,1.1,41,0.00,,,0.00,0,TxWx,2013-02-18 20:19:00,
2013-02-18 15:22:00,49.4,26.1,30.09,West,279,0.7,0.0,40,0.00,,,0.00,0,TxWx,2013-02-18 20:22:00,
2013-02-18 15:24:00,49.4,26.5,30.09,NNW,345,0.7,1.0,40,0.00,,,0.00,0,TxWx,2013-02-18 20:24:00,
2013-02-18 15:25:00,49.5,27.0,30.09,NW,319,3.4,3.4,41,0.00,,,0.00,0,TxWx,2013-02-18 20:25:00,
2013-02-18 15:27:00,48.9,24.6,30.09,NNE,13,4.2,4.2,38,0.00,,,0.00,0,TxWx,2013-02-18 20:27:00,
2013-02-18 15:29:00,48.8,24.2,30.09,North,351,2.6,2.6,37,0.00,,,0.00,0,TxWx,2013-02-18 20:29:00,
2013-02-18 15:30:00,48.7,24.2,30.09,NNW,328,3.0,3.0,37,0.00,,,0.00,0,TxWx,2013-02-18 20:30:00,
2013-02-18 15:32:00,48.9,24.3,30.09,NNW,340,1.5,1.5,37,0.00,,,0.00,0,TxWx,2013-02-18 20:32:00,
2013-02-18 15:34:00,48.9,24.7,30.09,North,7,1.9,1.9,38,0.00,,,0.00,0,TxWx,2013-02-18 20:34:00,
2013-02-18 15:35:00,48.9,24.8,30.09,SE,135,0.7,0.0,38,0.00,,,0.00,0,TxWx,2013-02-18 20:35:00,
2013-02-18 15:37:00,48.8,26.4,30.09,SW,229,0.7,0.0,41,0.00,,,0.00,0,TxWx,2013-02-18 20:37:00,
2013-02-18 15:39:00,48.8,26.0,30.09,SSW,212,1.1,1.1,40,0.00,,,0.00,0,TxWx,2013-02-18 20:39:00,
2013-02-18 15:40:00,49.0,24.3,30.09,NW,304,0.7,0.0,37,0.00,,,0.00,0,TxWx,2013-02-18 20:40:00,
2013-02-18 15:43:00,49.1,24.0,30.09,North,9,1.5,1.5,37,0.00,,,0.00,0,TxWx,2013-02-18 20:43:00,
2013-02-18 15:44:00,49.1,23.3,30.09,North,8,0.3,0.0,35,0.00,,,0.00,0,TxWx,2013-02-18 20:44:00,
2013-02-18 15:45:00,49.3,22.9,30.09,SSW,205,1.1,1.1,35,0.00,,,0.00,0,TxWx,2013-02-18 20:45:00,
2013-02-18 15:48:00,49.2,22.7,30.09,WNW,298,1.9,1.9,35,0.00,,,0.00,0,TxWx,2013-02-18 20:48:00,
2013-02-18 15:49:00,49.1,22.5,30.09,South,184,1.5,1.5,34,0.00,,,0.00,0,TxWx,2013-02-18 20:49:00,
2013-02-18 15:51:00,49.3,23.7,30.09,East,94,1.1,1.1,36,0.00,,,0.00,0,TxWx,2013-02-18 20:51:00,
2013-02-18 15:53:00,49.1,24.2,30.09,ENE,61,0.7,0.0,37,0.00,,,0.00,0,TxWx,2013-02-18 20:53:00,
2013-02-18 15:54:00,49.2,23.2,30.09,ENE,62,3.0,3.0,35,0.00,,,0.00,0,TxWx,2013-02-18 20:54:00,
2013-02-18 15:56:00,48.8,21.6,30.10,WSW,246,1.9,1.9,33,0.00,,,0.00,0,TxWx,2013-02-18 20:56:00,
2013-02-18 15:58:00,48.6,22.9,30.10,SSE,163,1.5,1.5,36,0.00,,,0.00,0,TxWx,2013-02-18 20:58:00,
2013-02-18 15:59:00,48.6,22.9,30.10,NE,56,1.1,1.1,36,0.00,,,0.00,0,TxWx,2013-02-18 20:59:00,
2013-02-18 16:01:00,48.5,22.4,30.10,NNE,14,3.0,3.0,35,0.00,,,0.00,0,TxWx,2013-02-18 21:01:00,
2013-02-18 16:03:00,48.4,21.8,30.10,ESE,120,0.7,1.0,34,0.00,,,0.00,0,TxWx,2013-02-18 21:03:00,
2013-02-18 16:04:00,48.3,21.5,30.10,NNW,342,1.1,1.1,34,0.00,,,0.00,0,TxWx,2013-02-18 21:04:00,
2013-02-18 16:07:00,48.1,21.7,30.10,ENE,58,1.1,1.1,35,0.00,,,0.00,0,TxWx,2013-02-18 21:07:00,
2013-02-18 16:08:00,48.2,23.0,30.10,SW,214,0.3,0.0,36,0.00,,,0.00,0,TxWx,2013-02-18 21:08:00,
2013-02-18 16:09:00,48.2,22.8,30.10,SW,215,0.0,0.0,36,0.00,,,0.00,0,TxWx,2013-02-18 21:09:00,
2013-02-18 16:12:00,48.1,22.2,30.10,SSE,165,1.1,1.1,35,0.00,,,0.00,0,TxWx,2013-02-18 21:12:00,
2013-02-18 16:13:00,47.8,21.8,30.10,NNE,16,3.0,3.0,35,0.00,,,0.00,0,TxWx,2013-02-18 21:13:00,
2013-02-18 16:15:00,47.7,21.2,30.10,SE,126,2.3,2.3,34,0.00,,,0.00,0,TxWx,2013-02-18 21:15:00,
2013-02-18 16:17:00,47.7,23.2,30.10,NE,43,1.1,1.1,37,0.00,,,0.00,0,TxWx,2013-02-18 21:17:00,
2013-02-18 16:18:00,47.9,22.8,30.10,WNW,301,0.7,1.0,36,0.00,,,0.00,0,TxWx,2013-02-18 21:18:00,
2013-02-18 16:20:00,47.9,22.2,30.10,WNW,303,1.9,1.9,36,0.00,,,0.00,0,TxWx,2013-02-18 21:20:00,
2013-02-18 16:22:00,47.9,22.1,30.10,NNE,12,0.3,0.0,35,0.00,,,0.00,0,TxWx,2013-02-18 21:22:00,
2013-02-18 16:23:00,48.3,23.5,30.10,WNW,303,0.0,0.0,37,0.00,,,0.00,0,TxWx,2013-02-18 21:23:00,
2013-02-18 16:25:00,48.4,23.3,30.10,East,90,0.7,1.0,36,0.00,,,0.00,0,TxWx,2013-02-18 21:25:00,
2013-02-18 16:27:00,48.2,22.8,30.10,South,173,1.5,1.5,36,0.00,,,0.00,0,TxWx,2013-02-18 21:27:00,
2013-02-18 16:28:00,48.3,22.3,30.10,NE,50,2.3,2.3,35,0.00,,,0.00,0,TxWx,2013-02-18 21:28:00,
2013-02-18 16:30:00,48.3,23.2,30.10,NE,48,1.9,2.0,36,0.00,,,0.00,0,TxWx,2013-02-18 21:30:00,
2013-02-18 16:32:00,48.0,21.5,30.09,WNW,303,1.5,1.5,34,0.00,,,0.00,0,TxWx,2013-02-18 21:32:00,
2013-02-18 16:33:00,48.0,21.5,30.09,SE,136,0.7,1.0,34,0.00,,,0.00,0,TxWx,2013-02-18 21:33:00,
2013-02-18 16:35:00,48.2,23.0,30.09,North,5,0.7,0.0,36,0.00,,,0.00,0,TxWx,2013-02-18 21:35:00,
2013-02-18 16:37:00,48.2,23.3,30.09,SSE,161,1.1,1.1,37,0.00,,,0.00,0,TxWx,2013-02-18 21:37:00,
2013-02-18 16:39:00,48.0,23.2,30.09,SE,131,1.1,1.1,37,0.00,,,0.00,0,TxWx,2013-02-18 21:39:00,
2013-02-18 16:40:00,48.1,22.4,30.09,NE,40,1.9,1.9,36,0.00,,,0.00,0,TxWx,2013-02-18 21:40:00,
2013-02-18 16:42:00,48.0,22.3,30.09,East,79,0.3,0.0,35,0.00,,,0.00,0,TxWx,2013-02-18 21:42:00,
2013-02-18 16:44:00,48.1,23.2,30.09,WNW,303,0.0,0.0,37,0.00,,,0.00,0,TxWx,2013-02-18 21:44:00,
2013-02-18 16:45:00,48.2,23.4,30.09,WNW,303,0.0,0.0,37,0.00,,,0.00,0,TxWx,2013-02-18 21:45:00,
2013-02-18 16:47:00,48.1,22.1,30.09,NW,315,1.5,1.5,35,0.00,,,0.00,0,TxWx,2013-02-18 21:47:00,
2013-02-18 16:49:00,48.1,22.0,30.09,SE,124,1.5,1.5,35,0.00,,,0.00,0,TxWx,2013-02-18 21:49:00,
2013-02-18 16:50:00,48.1,22.1,30.09,SE,125,1.5,1.5,35,0.00,,,0.00,0,TxWx,2013-02-18 21:50:00,
2013-02-18 16:52:00,48.0,22.6,30.09,East,91,0.7,0.0,36,0.00,,,0.00,0,TxWx,2013-02-18 21:52:00,
2013-02-18 16:55:00,48.1,22.8,30.09,South,173,1.5,1.5,36,0.00,,,0.00,0,TxWx,2013-02-18 21:55:00,
2013-02-18 16:58:00,47.3,22.3,30.09,WNW,294,1.5,1.5,36,0.00,,,0.00,0,TxWx,2013-02-18 21:58:00,
2013-02-18 17:00:00,47.2,21.6,30.09,NNW,348,1.5,1.5,35,0.00,,,0.00,0,TxWx,2013-02-18 22:00:00,
2013-02-18 17:03:00,46.9,21.7,30.09,WNW,301,1.5,1.5,36,0.00,,,0.00,0,TxWx,2013-02-18 22:03:00,
2013-02-18 17:05:00,46.8,21.7,30.09,WNW,299,1.1,1.1,36,0.00,,,0.00,0,TxWx,2013-02-18 22:05:00,
2013-02-18 17:08:00,46.4,21.3,30.09,North,358,0.3,0.0,36,0.00,,,0.00,0,TxWx,2013-02-18 22:08:00,
2013-02-18 17:10:00,46.5,21.9,30.09,WNW,301,1.1,1.1,37,0.00,,,0.00,0,TxWx,2013-02-18 22:10:00,
2013-02-18 17:13:00,46.5,22.1,30.09,ENE,65,1.1,1.1,37,0.00,,,0.00,0,TxWx,2013-02-18 22:13:00,
2013-02-18 17:15:00,46.6,22.1,30.09,NE,51,2.6,2.6,37,0.00,,,0.00,0,TxWx,2013-02-18 22:15:00,
2013-02-18 17:18:00,46.0,21.6,30.09,West,262,1.9,1.9,37,0.00,,,0.00,0,TxWx,2013-02-18 22:18:00,
2013-02-18 17:20:00,45.7,21.1,30.09,WSW,238,1.1,1.1,37,0.00,,,0.00,0,TxWx,2013-02-18 22:20:00,
2013-02-18 17:23:00,45.6,21.2,30.09,NW,321,0.7,1.0,37,0.00,,,0.00,0,TxWx,2013-02-18 22:23:00,
2013-02-18 17:25:00,45.2,22.0,30.09,SE,146,1.1,1.1,39,0.00,,,0.00,0,TxWx,2013-02-18 22:25:00,
2013-02-18 17:28:00,45.0,23.1,30.09,South,172,1.5,1.5,41,0.00,,,0.00,0,TxWx,2013-02-18 22:28:00,
2013-02-18 17:30:00,45.0,21.9,30.09,WSW,248,0.7,1.0,39,0.00,,,0.00,0,TxWx,2013-02-18 22:30:00,
2013-02-18 17:33:00,44.8,23.1,30.09,NNE,15,0.7,0.0,41,0.00,,,0.00,0,TxWx,2013-02-18 22:33:00,
2013-02-18 17:35:00,44.2,22.4,30.09,SE,146,1.1,1.1,41,0.00,,,0.00,0,TxWx,2013-02-18 22:35:00,
2013-02-18 17:36:00,44.2,22.4,30.09,ESE,103,2.3,2.3,41,0.00,,,0.00,0,TxWx,2013-02-18 22:36:00,
2013-02-18 17:38:00,44.3,21.9,30.09,ENE,76,3.0,3.0,40,0.00,,,0.00,0,TxWx,2013-02-18 22:38:00,
2013-02-18 17:40:00,44.4,21.4,30.09,West,274,1.5,1.5,39,0.00,,,0.00,0,TxWx,2013-02-18 22:40:00,
2013-02-18 17:41:00,44.4,21.4,30.09,WSW,257,0.3,0.0,39,0.00,,,0.00,0,TxWx,2013-02-18 22:41:00,
2013-02-18 17:43:00,44.2,24.3,30.09,WSW,250,1.9,2.0,45,0.00,,,0.00,0,TxWx,2013-02-18 22:43:00,
2013-02-18 17:45:00,43.6,22.0,30.09,SE,126,2.3,2.3,42,0.00,,,0.00,0,TxWx,2013-02-18 22:45:00,
2013-02-18 17:46:00,43.6,22.0,30.09,ENE,70,1.5,1.5,42,0.00,,,0.00,0,TxWx,2013-02-18 22:46:00,
2013-02-18 17:49:00,43.5,21.4,30.09,WNW,303,1.5,1.5,41,0.00,,,0.00,0,TxWx,2013-02-18 22:49:00,
2013-02-18 17:50:00,43.7,21.2,30.09,WNW,302,0.7,0.0,40,0.00,,,0.00,0,TxWx,2013-02-18 22:50:00,
2013-02-18 17:51:00,43.7,21.5,30.09,WNW,288,1.1,1.1,41,0.00,,,0.00,0,TxWx,2013-02-18 22:51:00,
2013-02-18 17:54:00,43.0,22.5,30.09,SE,124,1.5,1.5,43,0.00,,,0.00,0,TxWx,2013-02-18 22:54:00,
2013-02-18 17:55:00,42.8,21.9,30.09,East,93,0.7,1.0,43,0.00,,,0.00,0,TxWx,2013-02-18 22:55:00,
2013-02-18 17:56:00,42.7,22.2,30.09,East,85,0.7,0.0,43,0.00,,,0.00,0,TxWx,2013-02-18 22:56:00,
2013-02-18 17:59:00,41.7,22.4,30.09,SSE,162,1.5,1.5,45,0.00,,,0.00,0,TxWx,2013-02-18 22:59:00,
2013-02-18 18:01:00,41.5,22.3,30.09,SE,135,1.5,1.5,45,0.00,,,0.00,0,TxWx,2013-02-18 23:01:00,
2013-02-18 18:04:00,41.7,21.6,30.09,South,191,1.1,1.1,44,0.00,,,0.00,0,TxWx,2013-02-18 23:04:00,
2013-02-18 18:06:00,41.7,22.1,30.09,ESE,106,0.7,0.0,45,0.00,,,0.00,0,TxWx,2013-02-18 23:06:00,
2013-02-18 18:09:00,41.4,21.9,30.09,SSE,167,0.3,0.0,45,0.00,,,0.00,0,TxWx,2013-02-18 23:09:00,
2013-02-18 18:11:00,41.4,21.8,30.09,South,172,0.3,0.0,45,0.00,,,0.00,0,TxWx,2013-02-18 23:11:00,
2013-02-18 18:14:00,40.8,22.1,30.09,SE,141,0.7,1.0,46,0.00,,,0.00,0,TxWx,2013-02-18 23:14:00,
2013-02-18 18:16:00,40.8,22.0,30.09,West,271,0.3,0.0,46,0.00,,,0.00,0,TxWx,2013-02-18 23:16:00,
2013-02-18 18:19:00,40.9,21.4,30.09,East,97,0.7,0.0,45,0.00,,,0.00,0,TxWx,2013-02-18 23:19:00,
2013-02-18 18:21:00,40.9,21.7,30.09,SW,216,0.7,0.0,45,0.00,,,0.00,0,TxWx,2013-02-18 23:21:00,
2013-02-18 18:24:00,40.2,21.8,30.09,SSE,164,0.3,0.0,47,0.00,,,0.00,0,TxWx,2013-02-18 23:24:00,
2013-02-18 18:26:00,40.6,21.9,30.09,ESE,109,1.9,2.0,46,0.00,,,0.00,0,TxWx,2013-02-18 23:26:00,
2013-02-18 18:29:00,39.7,22.0,30.09,SE,144,1.5,1.5,48,0.00,,,0.00,0,TxWx,2013-02-18 23:29:00,
2013-02-18 18:31:00,39.6,21.9,30.09,East,86,1.5,1.5,48,0.00,,,0.00,0,TxWx,2013-02-18 23:31:00,
2013-02-18 18:35:00,39.2,21.7,30.09,ESE,103,1.5,1.5,49,0.00,,,0.00,0,TxWx,2013-02-18 23:35:00,
2013-02-18 18:36:00,39.2,22.0,30.09,SSW,198,1.9,2.0,49,0.00,,,0.00,0,TxWx,2013-02-18 23:36:00,
2013-02-18 18:37:00,38.9,21.6,30.09,SSE,160,1.5,1.5,49,0.00,,,0.00,0,TxWx,2013-02-18 23:37:00,
2013-02-18 18:40:00,38.7,22.1,30.09,SSE,151,1.1,1.1,51,0.00,,,0.00,0,TxWx,2013-02-18 23:40:00,
2013-02-18 18:42:00,38.8,21.9,30.09,WNW,295,1.9,2.0,50,0.00,,,0.00,0,TxWx,2013-02-18 23:42:00,
2013-02-18 18:45:00,39.2,22.0,30.09,NNW,341,3.4,3.4,49,0.00,,,0.00,0,TxWx,2013-02-18 23:45:00,
2013-02-18 18:47:00,39.7,21.9,30.09,NNE,26,0.7,0.0,48,0.00,,,0.00,0,TxWx,2013-02-18 23:47:00,
2013-02-18 18:50:00,39.8,22.3,30.09,ESE,123,1.1,1.1,49,0.00,,,0.00,0,TxWx,2013-02-18 23:50:00,
2013-02-18 18:52:00,39.7,22.0,30.09,NNW,331,0.3,0.0,48,0.00,,,0.00,0,TxWx,2013-02-18 23:52:00,
2013-02-18 18:55:00,39.7,21.8,30.09,SSE,157,0.7,0.0,48,0.00,,,0.00,0,TxWx,2013-02-18 23:55:00,
2013-02-18 18:57:00,39.2,21.9,30.09,North,7,2.6,3.0,49,0.00,,,0.00,0,TxWx,2013-02-18 23:57:00,
2013-02-18 19:00:00,38.7,22.1,30.09,NNW,346,0.3,0.0,50,0.00,,,0.00,0,TxWx,2013-02-19 00:00:00,
2013-02-18 19:02:00,38.6,22.2,30.09,ESE,108,0.3,0.0,51,0.00,,,0.00,0,TxWx,2013-02-19 00:02:00,
2013-02-18 19:05:00,38.1,21.8,30.09,NNE,31,1.1,1.1,51,0.00,,,0.00,0,TxWx,2013-02-19 00:05:00,
2013-02-18 19:07:00,38.3,22.0,30.09,WNW,303,1.1,1.1,51,0.00,,,0.00,0,TxWx,2013-02-19 00:07:00,
2013-02-18 19:10:00,38.0,22.3,30.09,SSE,147,1.5,1.5,52,0.00,,,0.00,0,TxWx,2013-02-19 00:10:00,
2013-02-18 19:12:00,37.5,22.1,30.09,South,172,0.7,1.0,53,0.00,,,0.00,0,TxWx,2013-02-19 00:12:00,
2013-02-18 19:13:00,37.5,22.1,30.09,SSE,163,0.7,1.0,53,0.00,,,0.00,0,TxWx,2013-02-19 00:13:00,
2013-02-18 19:16:00,37.5,21.9,30.09,SSW,208,2.6,3.0,52,0.00,,,0.00,0,TxWx,2013-02-19 00:16:00,
2013-02-18 19:17:00,37.9,22.3,30.09,ESE,123,1.5,1.5,52,0.00,,,0.00,0,TxWx,2013-02-19 00:17:00,
2013-02-18 19:18:00,37.9,22.3,30.09,SE,136,1.5,1.5,52,0.00,,,0.00,0,TxWx,2013-02-19 00:18:00,
2013-02-18 19:21:00,37.6,22.4,30.09,SE,144,0.7,1.0,53,0.00,,,0.00,0,TxWx,2013-02-19 00:21:00,
2013-02-18 19:22:00,37.4,22.2,30.09,SW,228,0.3,0.0,53,0.00,,,0.00,0,TxWx,2013-02-19 00:22:00,
2013-02-18 19:23:00,37.4,22.2,30.09,SSW,207,0.3,0.0,53,0.00,,,0.00,0,TxWx,2013-02-19 00:23:00,
2013-02-18 19:26:00,37.6,22.3,30.09,ENE,75,1.9,2.0,53,0.00,,,0.00,0,TxWx,2013-02-19 00:26:00,
2013-02-18 19:27:00,37.3,22.1,30.09,SE,144,1.5,1.5,53,0.00,,,0.00,0,TxWx,2013-02-19 00:27:00,
2013-02-18 19:28:00,37.1,22.1,30.09,SSE,162,1.9,2.0,54,0.00,,,0.00,0,TxWx,2013-02-19 00:28:00,
2013-02-18 19:31:00,37.9,21.5,30.09,ENE,59,2.3,2.3,51,0.00,,,0.00,0,TxWx,2013-02-19 00:31:00,
2013-02-18 19:32:00,37.9,21.8,30.09,South,181,2.6,3.0,52,0.00,,,0.00,0,TxWx,2013-02-19 00:32:00,
2013-02-18 19:33:00,38.1,21.6,30.09,SW,225,1.1,1.1,51,0.00,,,0.00,0,TxWx,2013-02-19 00:33:00,
2013-02-18 19:36:00,38.4,21.2,30.09,SW,229,1.1,1.1,49,0.00,,,0.00,0,TxWx,2013-02-19 00:36:00,
2013-02-18 19:37:00,38.4,21.3,30.09,SSW,198,0.0,0.0,49,0.00,,,0.00,0,TxWx,2013-02-19 00:37:00,
2013-02-18 19:39:00,38.5,21.5,30.09,NNW,338,0.7,0.0,49,0.00,,,0.00,0,TxWx,2013-02-19 00:39:00,
2013-02-18 19:41:00,38.4,21.4,30.09,NNW,329,0.7,1.0,49,0.00,,,0.00,0,TxWx,2013-02-19 00:41:00,
2013-02-18 19:42:00,38.5,21.2,30.09,WSW,253,1.5,1.5,49,0.00,,,0.00,0,TxWx,2013-02-19 00:42:00,
2013-02-18 19:44:00,38.5,21.2,30.09,NW,309,1.1,1.1,49,0.00,,,0.00,0,TxWx,2013-02-19 00:44:00,
2013-02-18 19:46:00,38.2,21.2,30.09,WNW,300,1.1,1.1,50,0.00,,,0.00,0,TxWx,2013-02-19 00:46:00,
2013-02-18 19:48:00,38.3,21.1,30.09,WNW,300,0.3,0.0,49,0.00,,,0.00,0,TxWx,2013-02-19 00:48:00,
2013-02-18 19:49:00,38.1,21.2,30.09,West,271,0.0,0.0,50,0.00,,,0.00,0,TxWx,2013-02-19 00:49:00,
2013-02-18 19:52:00,37.3,21.8,30.09,SE,145,0.7,1.0,53,0.00,,,0.00,0,TxWx,2013-02-19 00:52:00,
2013-02-18 19:53:00,37.1,21.4,30.09,ESE,123,1.1,1.1,52,0.00,,,0.00,0,TxWx,2013-02-19 00:53:00,
2013-02-18 19:54:00,37.1,21.4,30.09,ESE,121,0.3,0.0,52,0.00,,,0.00,0,TxWx,2013-02-19 00:54:00,
2013-02-18 19:57:00,37.6,21.4,30.09,NNE,29,0.7,1.0,51,0.00,,,0.00,0,TxWx,2013-02-19 00:57:00,
2013-02-18 19:58:00,37.5,21.4,30.09,SW,234,0.0,0.0,51,0.00,,,0.00,0,TxWx,2013-02-19 00:58:00,
2013-02-18 19:59:00,37.5,21.5,30.09,West,275,0.0,0.0,52,0.00,,,0.00,0,TxWx,2013-02-19 00:59:00,
2013-02-18 20:02:00,37.1,21.9,30.09,East,95,1.9,2.0,53,0.00,,,0.00,0,TxWx,2013-02-19 01:02:00,
2013-02-18 20:03:00,37.0,21.6,30.09,SSE,168,1.1,1.1,53,0.00,,,0.00,0,TxWx,2013-02-19 01:03:00,
2013-02-18 20:04:00,37.3,21.4,30.09,SSE,166,1.1,1.1,52,0.00,,,0.00,0,TxWx,2013-02-19 01:04:00,
2013-02-18 20:07:00,37.6,21.4,30.09,East,100,0.7,0.0,51,0.00,,,0.00,0,TxWx,2013-02-19 01:07:00,
2013-02-18 20:08:00,37.6,21.3,30.09,NNE,17,3.4,3.4,51,0.00,,,0.00,0,TxWx,2013-02-19 01:08:00,
2013-02-18 20:09:00,38.1,21.4,30.09,NW,318,0.0,0.0,50,0.00,,,0.00,0,TxWx,2013-02-19 01:09:00,
2013-02-18 20:12:00,37.9,21.8,30.08,SSE,155,1.1,1.1,51,0.00,,,0.00,0,TxWx,2013-02-19 01:12:00,
2013-02-18 20:13:00,37.4,22.3,30.08,SE,135,0.7,1.0,54,0.00,,,0.00,0,TxWx,2013-02-19 01:13:00,
2013-02-18 20:14:00,37.2,21.5,30.08,East,97,1.1,1.1,52,0.00,,,0.00,0,TxWx,2013-02-19 01:14:00,
2013-02-18 20:17:00,37.3,21.1,30.08,SSE,165,1.1,1.1,51,0.00,,,0.00,0,TxWx,2013-02-19 01:17:00,
2013-02-18 20:19:00,37.0,21.6,30.08,East,99,0.7,0.0,53,0.00,,,0.00,0,TxWx,2013-02-19 01:19:00,
2013-02-18 20:20:00,36.9,21.9,30.08,NNE,25,0.7,1.0,54,0.00,,,0.00,0,TxWx,2013-02-19 01:20:00,
2013-02-18 20:23:00,36.3,22.0,30.08,SSE,160,1.1,1.1,55,0.00,,,0.00,0,TxWx,2013-02-19 01:23:00,
2013-02-18 20:24:00,36.1,21.5,30.08,East,89,1.5,1.5,54,0.00,,,0.00,0,TxWx,2013-02-19 01:24:00,
2013-02-18 20:25:00,36.1,21.5,30.08,SE,146,1.9,1.9,54,0.00,,,0.00,0,TxWx,2013-02-19 01:25:00,
2013-02-18 20:28:00,36.2,21.8,30.08,SE,145,1.1,1.1,55,0.00,,,0.00,0,TxWx,2013-02-19 01:28:00,
2013-02-18 20:29:00,35.9,22.0,30.08,SW,217,1.5,1.5,56,0.00,,,0.00,0,TxWx,2013-02-19 01:29:00,
2013-02-18 20:30:00,35.9,21.6,30.08,SSE,154,1.5,1.5,55,0.00,,,0.00,0,TxWx,2013-02-19 01:30:00,
2013-02-18 20:33:00,35.8,21.4,30.08,SSE,164,1.1,1.1,55,0.00,,,0.00,0,TxWx,2013-02-19 01:33:00,
2013-02-18 20:34:00,35.7,22.0,30.08,SE,130,0.7,1.0,57,0.00,,,0.00,0,TxWx,2013-02-19 01:34:00,
2013-02-18 20:36:00,35.8,22.0,30.08,NE,41,0.3,0.0,57,0.00,,,0.00,0,TxWx,2013-02-19 01:36:00,
2013-02-18 20:38:00,35.4,22.4,30.08,ESE,120,0.7,1.0,58,0.00,,,0.00,0,TxWx,2013-02-19 01:38:00,
2013-02-18 20:39:00,35.4,22.1,30.08,SSE,164,1.1,1.1,57,0.00,,,0.00,0,TxWx,2013-02-19 01:39:00,
2013-02-18 20:41:00,35.5,21.6,30.08,SSE,158,1.5,1.5,56,0.00,,,0.00,0,TxWx,2013-02-19 01:41:00,
2013-02-18 20:43:00,35.9,21.4,30.08,SSE,167,0.7,1.0,55,0.00,,,0.00,0,TxWx,2013-02-19 01:43:00,
2013-02-18 20:44:00,36.0,21.8,30.08,SE,133,0.7,0.0,55,0.00,,,0.00,0,TxWx,2013-02-19 01:44:00,
2013-02-18 20:46:00,36.0,21.9,30.08,NE,46,0.3,0.0,56,0.00,,,0.00,0,TxWx,2013-02-19 01:46:00,
2013-02-18 20:48:00,36.1,21.8,30.08,SSE,154,1.1,1.1,55,0.00,,,0.00,0,TxWx,2013-02-19 01:48:00,
2013-02-18 20:50:00,36.0,22.0,30.08,SSE,154,0.3,0.0,56,0.00,,,0.00,0,TxWx,2013-02-19 01:50:00,
2013-02-18 20:51:00,36.0,21.9,30.09,SSE,154,0.0,0.0,56,0.00,,,0.00,0,TxWx,2013-02-19 01:51:00,
2013-02-18 20:54:00,36.2,21.7,30.09,East,89,1.5,1.5,55,0.00,,,0.00,0,TxWx,2013-02-19 01:54:00,
2013-02-18 20:55:00,36.3,21.7,30.09,SE,138,1.1,1.1,55,0.00,,,0.00,0,TxWx,2013-02-19 01:55:00,
2013-02-18 20:56:00,36.5,21.5,30.09,SSE,149,0.7,1.0,54,0.00,,,0.00,0,TxWx,2013-02-19 01:56:00,
2013-02-18 20:59:00,36.6,21.8,30.09,WSW,251,0.3,0.0,54,0.00,,,0.00,0,TxWx,2013-02-19 01:59:00,
2013-02-18 21:00:00,36.8,21.5,30.09,SSE,148,1.5,1.5,53,0.00,,,0.00,0,TxWx,2013-02-19 02:00:00,
2013-02-18 21:02:00,36.6,22.0,30.09,SE,125,0.7,0.0,54,0.00,,,0.00,0,TxWx,2013-02-19 02:02:00,
2013-02-18 21:04:00,36.6,21.7,30.09,SSE,161,0.7,0.0,54,0.00,,,0.00,0,TxWx,2013-02-19 02:04:00,
2013-02-18 21:05:00,36.6,21.8,30.09,SSE,161,1.1,1.1,54,0.00,,,0.00,0,TxWx,2013-02-19 02:05:00,
2013-02-18 21:07:00,36.5,22.1,30.09,SSE,161,0.7,0.0,55,0.00,,,0.00,0,TxWx,2013-02-19 02:07:00,
2013-02-18 21:09:00,36.5,21.7,30.09,SE,133,0.7,1.0,54,0.00,,,0.00,0,TxWx,2013-02-19 02:09:00,
2013-02-18 21:10:00,36.5,21.7,30.09,SE,138,0.7,0.0,54,0.00,,,0.00,0,TxWx,2013-02-19 02:10:00,
2013-02-18 21:12:00,36.6,21.7,30.09,NE,54,1.1,1.1,54,0.00,,,0.00,0,TxWx,2013-02-19 02:12:00,
2013-02-18 21:14:00,36.6,21.9,30.09,NE,47,0.7,0.0,54,0.00,,,0.00,0,TxWx,2013-02-19 02:14:00,
2013-02-18 21:16:00,36.7,21.6,30.08,SW,224,1.5,1.5,53,0.00,,,0.00,0,TxWx,2013-02-19 02:16:00,
2013-02-18 21:17:00,36.6,22.0,30.08,SSW,206,0.0,0.0,55,0.00,,,0.00,0,TxWx,2013-02-19 02:17:00,
2013-02-18 21:19:00,37.0,21.7,30.08,East,92,1.1,1.1,53,0.00,,,0.00,0,TxWx,2013-02-19 02:19:00,
2013-02-18 21:21:00,37.1,21.6,30.08,SSW,198,2.6,2.6,53,0.00,,,0.00,0,TxWx,2013-02-19 02:21:00,
2013-02-18 21:22:00,37.2,22.2,30.08,South,185,0.0,0.0,54,0.00,,,0.00,0,TxWx,2013-02-19 02:22:00,
2013-02-18 21:25:00,37.0,22.4,30.08,ESE,112,1.1,1.1,55,0.00,,,0.00,0,TxWx,2013-02-19 02:25:00,
2013-02-18 21:26:00,36.9,22.6,30.08,SE,139,0.7,0.0,55,0.00,,,0.00,0,TxWx,2013-02-19 02:26:00,
2013-02-18 21:27:00,36.4,21.9,30.08,SSE,152,0.7,0.0,55,0.00,,,0.00,0,TxWx,2013-02-19 02:27:00,
2013-02-18 21:30:00,36.4,21.7,30.08,SSE,156,0.3,0.0,54,0.00,,,0.00,0,TxWx,2013-02-19 02:30:00,
2013-02-18 21:31:00,36.5,21.7,30.08,ENE,69,1.5,1.5,54,0.00,,,0.00,0,TxWx,2013-02-19 02:31:00,
2013-02-18 21:32:00,36.6,21.6,30.07,WNW,301,0.0,0.0,54,0.00,,,0.00,0,TxWx,2013-02-19 02:32:00,
2013-02-18 21:35:00,36.2,21.8,30.07,SSE,158,0.3,0.0,55,0.00,,,0.00,0,TxWx,2013-02-19 02:35:00,
2013-02-18 21:36:00,36.3,21.7,30.07,SE,143,0.3,0.0,54,0.00,,,0.00,0,TxWx,2013-02-19 02:36:00,
2013-02-18 21:37:00,36.0,22.1,30.07,SSE,161,1.1,1.1,56,0.00,,,0.00,0,TxWx,2013-02-19 02:37:00,
2013-02-18 21:40:00,35.8,21.9,30.07,SE,143,1.1,1.1,56,0.00,,,0.00,0,TxWx,2013-02-19 02:40:00,
2013-02-18 21:41:00,35.6,22.1,30.07,SSE,157,0.7,0.0,57,0.00,,,0.00,0,TxWx,2013-02-19 02:41:00,
2013-02-18 21:42:00,35.8,22.0,30.07,North,2,1.1,1.1,56,0.00,,,0.00,0,TxWx,2013-02-19 02:42:00,
2013-02-18 21:45:00,36.1,22.0,30.07,WNW,303,0.7,0.0,56,0.00,,,0.00,0,TxWx,2013-02-19 02:45:00,
2013-02-18 21:46:00,36.4,21.9,30.07,West,277,0.3,0.0,55,0.00,,,0.00,0,TxWx,2013-02-19 02:46:00,
2013-02-18 21:48:00,36.4,22.3,30.06,SW,234,0.0,0.0,56,0.00,,,0.00,0,TxWx,2013-02-19 02:48:00,
2013-02-18 21:50:00,36.2,22.5,30.06,SE,140,0.0,0.0,57,0.00,,,0.00,0,TxWx,2013-02-19 02:50:00,
2013-02-18 21:51:00,36.2,22.3,30.06,SE,140,0.0,0.0,56,0.00,,,0.00,0,TxWx,2013-02-19 02:51:00,
2013-02-18 21:53:00,36.0,22.2,30.06,SSE,158,1.1,1.1,56,0.00,,,0.00,0,TxWx,2013-02-19 02:53:00,
2013-02-18 21:55:00,35.7,22.1,30.06,SSE,162,0.7,1.0,57,0.00,,,0.00,0,TxWx,2013-02-19 02:55:00,
2013-02-18 21:56:00,35.7,21.8,30.06,SSE,161,1.1,1.1,56,0.00,,,0.00,0,TxWx,2013-02-19 02:56:00,
2013-02-18 21:58:00,35.7,21.9,30.07,SSE,155,1.1,1.1,56,0.00,,,0.00,0,TxWx,2013-02-19 02:58:00,
2013-02-18 22:01:00,36.0,22.3,30.06,SSE,155,0.7,0.0,57,0.00,,,0.00,0,TxWx,2013-02-19 03:01:00,
2013-02-18 22:02:00,36.0,22.3,30.06,SSE,157,0.7,1.0,57,0.00,,,0.00,0,TxWx,2013-02-19 03:02:00,
2013-02-18 22:04:00,36.1,22.2,30.06,SSE,157,0.0,0.0,56,0.00,,,0.00,0,TxWx,2013-02-19 03:04:00,
2013-02-18 22:06:00,36.0,22.3,30.06,NNE,13,0.3,0.0,57,0.00,,,0.00,0,TxWx,2013-02-19 03:06:00,
2013-02-18 22:07:00,35.8,22.1,30.06,SE,134,1.1,1.1,57,0.00,,,0.00,0,TxWx,2013-02-19 03:07:00,
2013-02-18 22:09:00,35.7,22.0,30.06,SSE,150,1.1,1.1,56,0.00,,,0.00,0,TxWx,2013-02-19 03:09:00,
2013-02-18 22:12:00,35.7,22.2,30.06,ESE,123,0.3,0.0,57,0.00,,,0.00,0,TxWx,2013-02-19 03:12:00,
2013-02-18 22:14:00,35.2,22.4,30.05,South,172,0.7,1.0,59,0.00,,,0.00,0,TxWx,2013-02-19 03:14:00,
2013-02-18 22:17:00,34.9,22.3,30.06,South,173,1.5,1.5,59,0.00,,,0.00,0,TxWx,2013-02-19 03:17:00,
2013-02-18 22:19:00,34.9,22.1,30.06,South,174,0.0,0.0,59,0.00,,,0.00,0,TxWx,2013-02-19 03:19:00,
2013-02-18 22:22:00,35.0,22.4,30.06,ESE,105,0.7,1.0,59,0.00,,,0.00,0,TxWx,2013-02-19 03:22:00,
2013-02-18 22:23:00,35.0,22.4,30.06,ESE,120,0.3,0.0,59,0.00,,,0.00,0,TxWx,2013-02-19 03:23:00,
2013-02-18 22:25:00,34.8,22.4,30.06,SSE,157,1.1,1.1,60,0.00,,,0.00,0,TxWx,2013-02-19 03:25:00,
2013-02-18 22:27:00,35.2,22.5,30.06,SSW,202,0.0,0.0,59,0.00,,,0.00,0,TxWx,2013-02-19 03:27:00,
2013-02-18 22:28:00,35.2,22.5,30.06,WSW,249,0.0,0.0,59,0.00,,,0.00,0,TxWx,2013-02-19 03:28:00,
2013-02-18 22:30:00,35.2,22.5,30.06,NE,53,1.9,2.0,59,0.00,,,0.00,0,TxWx,2013-02-19 03:30:00,
2013-02-18 22:32:00,35.6,22.8,30.06,SSE,168,0.7,1.0,59,0.00,,,0.00,0,TxWx,2013-02-19 03:32:00,
2013-02-18 22:33:00,35.6,22.8,30.06,SSE,168,0.7,1.0,59,0.00,,,0.00,0,TxWx,2013-02-19 03:33:00,
2013-02-18 22:35:00,35.6,22.7,30.06,SE,145,0.7,1.0,59,0.00,,,0.00,0,TxWx,2013-02-19 03:35:00,
2013-02-18 22:38:00,35.5,22.4,30.06,ESE,102,0.0,0.0,58,0.00,,,0.00,0,TxWx,2013-02-19 03:38:00,
2013-02-18 22:40:00,35.5,22.4,30.06,ESE,112,0.3,0.0,58,0.00,,,0.00,0,TxWx,2013-02-19 03:40:00,
2013-02-18 22:43:00,35.3,22.9,30.05,South,185,0.3,0.0,60,0.00,,,0.00,0,TxWx,2013-02-19 03:43:00,
2013-02-18 22:45:00,35.3,22.7,30.05,ESE,110,0.7,1.0,59,0.00,,,0.00,0,TxWx,2013-02-19 03:45:00,
2013-02-18 22:48:00,35.5,22.3,30.05,SE,141,0.3,1.0,58,0.00,,,0.00,0,TxWx,2013-02-19 03:48:00,
2013-02-18 22:50:00,35.5,22.4,30.05,East,80,0.0,0.0,58,0.00,,,0.00,0,TxWx,2013-02-19 03:50:00,
2013-02-18 22:53:00,34.9,22.9,30.05,South,183,0.7,0.0,61,0.00,,,0.00,0,TxWx,2013-02-19 03:53:00,
2013-02-18 22:55:00,34.8,22.4,30.05,SE,131,0.3,0.0,60,0.00,,,0.00,0,TxWx,2013-02-19 03:55:00,
2013-02-18 22:58:00,34.3,22.1,30.05,SSW,193,1.1,1.1,60,0.00,,,0.00,0,TxWx,2013-02-19 03:58:00,
2013-02-18 23:00:00,34.2,22.6,30.05,NNE,29,1.1,1.1,62,0.00,,,0.00,0,TxWx,2013-02-19 04:00:00,
2013-02-18 23:03:00,34.8,22.9,30.05,SSW,198,0.3,0.0,61,0.00,,,0.00,0,TxWx,2013-02-19 04:03:00,
2013-02-18 23:05:00,34.8,22.9,30.05,WNW,287,1.1,1.1,61,0.00,,,0.00,0,TxWx,2013-02-19 04:05:00,
2013-02-18 23:08:00,34.6,22.9,30.05,SSE,163,1.5,1.5,61,0.00,,,0.00,0,TxWx,2013-02-19 04:08:00,
2013-02-18 23:10:00,34.9,22.8,30.05,South,183,0.3,0.0,61,0.00,,,0.00,0,TxWx,2013-02-19 04:10:00,
2013-02-18 23:13:00,35.4,22.7,30.05,NNE,24,1.9,2.0,59,0.00,,,0.00,0,TxWx,2013-02-19 04:13:00,
2013-02-18 23:15:00,36.2,22.7,30.04,SW,214,1.1,1.1,57,0.00,,,0.00,0,TxWx,2013-02-19 04:15:00,
2013-02-18 23:18:00,36.7,22.6,30.04,WSW,247,0.7,1.0,56,0.00,,,0.00,0,TxWx,2013-02-19 04:18:00,
2013-02-18 23:21:00,36.3,22.4,30.04,SE,130,1.1,1.1,56,0.00,,,0.00,0,TxWx,2013-02-19 04:21:00,
2013-02-18 23:23:00,36.2,22.4,30.04,ENE,59,2.6,2.6,56,0.00,,,0.00,0,TxWx,2013-02-19 04:23:00,
2013-02-18 23:24:00,36.2,22.4,30.04,NE,56,2.3,2.3,56,0.00,,,0.00,0,TxWx,2013-02-19 04:24:00,
2013-02-18 23:26:00,35.8,22.4,30.03,SSW,192,0.0,0.0,57,0.00,,,0.00,0,TxWx,2013-02-19 04:26:00,
2013-02-18 23:28:00,35.6,22.2,30.03,SE,146,0.7,0.0,57,0.00,,,0.00,0,TxWx,2013-02-19 04:28:00,
2013-02-18 23:29:00,35.5,22.4,30.03,SSE,148,1.1,1.1,58,0.00,,,0.00,0,TxWx,2013-02-19 04:29:00,
2013-02-18 23:31:00,35.5,22.0,30.03,South,183,0.7,0.0,57,0.00,,,0.00,0,TxWx,2013-02-19 04:31:00,
2013-02-18 23:34:00,35.8,22.1,30.04,NNW,348,1.9,1.9,57,0.00,,,0.00,0,TxWx,2013-02-19 04:34:00,
2013-02-18 23:36:00,35.4,23.0,30.04,South,169,1.1,1.1,60,0.00,,,0.00,0,TxWx,2013-02-19 04:36:00,
2013-02-18 23:39:00,34.9,22.6,30.04,SSE,166,1.1,1.1,60,0.00,,,0.00,0,TxWx,2013-02-19 04:39:00,
2013-02-18 23:41:00,35.0,22.7,30.04,East,91,1.1,1.1,60,0.00,,,0.00,0,TxWx,2013-02-19 04:41:00,
2013-02-18 23:44:00,35.2,22.4,30.04,South,180,1.1,1.1,59,0.00,,,0.00,0,TxWx,2013-02-19 04:44:00,
2013-02-18 23:46:00,35.4,22.6,30.03,NNE,19,1.5,1.5,59,0.00,,,0.00,0,TxWx,2013-02-19 04:46:00,
2013-02-18 23:49:00,35.2,22.7,30.03,South,185,1.5,1.5,60,0.00,,,0.00,0,TxWx,2013-02-19 04:49:00,
2013-02-18 23:52:00,35.2,22.3,30.03,ESE,113,1.5,1.5,58,0.00,,,0.00,0,TxWx,2013-02-19 04:52:00,
2013-02-18 23:54:00,34.9,22.5,30.03,South,174,0.7,0.0,60,0.00,,,0.00,0,TxWx,2013-02-19 04:54:00,
2013-02-18 23:55:00,34.9,22.5,30.03,South,177,0.7,0.0,60,0.00,,,0.00,0,TxWx,2013-02-19 04:55:00,
2013-02-18 23:57:00,35.3,22.5,30.03,NNE,32,0.3,0.0,59,0.00,,,0.00,0,TxWx,2013-02-19 04:57:00,
2013-02-18 23:59:00,35.2,22.4,30.02,East,80,1.5,1.5,59,0.00,,,0.00,0,TxWx,2013-02-19 04:59:00,